TimeCST,TemperatureF,Dew PointF,Humidity,Sea Level PressureIn,VisibilityMPH,Wind Direction,Wind SpeedMPH,Gust SpeedMPH,PrecipitationIn,Events,Conditions,WindDirDegrees,DateUTC
12:15 AM,35.6,19.4,52,30.17,10.0,SSW,12.7,18.4,N/A,,Clear,200,2012-12-31 06:15:00
12:35 AM,35.6,19.4,52,30.17,10.0,South,13.8,-,N/A,,Clear,190,2012-12-31 06:35:00
12:55 AM,35.6,19.4,52,30.15,10.0,South,16.1,20.7,N/A,,Clear,190,2012-12-31 06:55:00
1:15 AM,35.6,19.4,52,30.15,10.0,SSW,13.8,-,N/A,,Clear,200,2012-12-31 07:15:00
1:35 AM,35.6,19.4,52,30.16,10.0,SSW,13.8,17.3,N/A,,Clear,200,2012-12-31 07:35:00
1:55 AM,35.6,21.2,56,30.17,10.0,SSW,10.4,-,N/A,,Mostly Cloudy,200,2012-12-31 07:55:00
2:15 AM,35.6,21.2,56,30.16,10.0,SSW,8.1,16.1,N/A,,Overcast,210,2012-12-31 08:15:00
2:35 AM,35.6,21.2,56,30.16,10.0,SSW,9.2,-,N/A,,Overcast,210,2012-12-31 08:35:00
2:55 AM,35.6,21.2,56,30.16,10.0,SSW,9.2,-,N/A,,Overcast,200,2012-12-31 08:55:00
3:15 AM,35.6,21.2,56,30.16,10.0,SSW,8.1,-,N/A,,Overcast,210,2012-12-31 09:15:00
3:35 AM,35.6,21.2,56,30.14,10.0,SSW,9.2,-,N/A,,Overcast,200,2012-12-31 09:35:00
3:55 AM,35.6,21.2,56,30.15,10.0,SSW,9.2,-,N/A,,Overcast,200,2012-12-31 09:55:00
4:15 AM,35.6,21.2,56,30.15,10.0,South,8.1,-,N/A,,Overcast,190,2012-12-31 10:15:00
4:35 AM,35.6,23.0,60,30.15,10.0,SSW,8.1,-,N/A,,Overcast,200,2012-12-31 10:35:00
4:55 AM,35.6,23.0,60,30.15,10.0,SSW,9.2,-,N/A,,Overcast,210,2012-12-31 10:55:00
5:15 AM,35.6,24.8,65,30.15,7.0,South,10.4,-,N/A,Snow,Light Snow,190,2012-12-31 11:15:00
5:35 AM,32.0,28.4,87,30.13,7.0,South,8.1,-,N/A,Snow,Light Snow,170,2012-12-31 11:35:00
5:55 AM,32.0,30.2,93,30.13,10.0,SSE,5.8,-,N/A,,Overcast,160,2012-12-31 11:55:00
6:15 AM,32.0,30.2,93,30.13,10.0,SSE,5.8,-,N/A,,Overcast,160,2012-12-31 12:15:00
6:35 AM,32.0,30.2,93,30.13,10.0,SSE,6.9,-,N/A,,Overcast,160,2012-12-31 12:35:00
6:55 AM,32.0,30.2,93,30.13,10.0,SSE,6.9,-,N/A,,Overcast,160,2012-12-31 12:55:00
7:15 AM,32.0,30.2,93,30.13,10.0,SSE,6.9,-,N/A,,Overcast,160,2012-12-31 13:15:00
7:35 AM,32.0,30.2,93,30.13,10.0,South,4.6,-,N/A,Snow,Light Snow,180,2012-12-31 13:35:00
7:55 AM,32.0,32.0,100,30.14,7.0,South,4.6,-,N/A,,Overcast,190,2012-12-31 13:55:00
8:35 AM,32.0,32.0,100,30.13,2.5,SSW,4.6,-,N/A,Snow,Light Snow,210,2012-12-31 14:35:00
8:55 AM,32.0,32.0,100,30.13,3.0,South,4.6,-,N/A,Snow,Light Snow,190,2012-12-31 14:55:00
9:15 AM,32.0,32.0,100,30.13,1.5,SSW,3.5,-,N/A,Snow,Light Snow,200,2012-12-31 15:15:00
9:35 AM,32.0,32.0,100,30.15,1.5,Calm,Calm,-,N/A,Snow,Light Snow,0,2012-12-31 15:35:00
9:55 AM,32.0,32.0,100,30.16,1.5,Calm,Calm,-,0.01,Snow,Light Snow,0,2012-12-31 15:55:00
10:15 AM,32.0,32.0,100,30.15,1.2,Calm,Calm,-,N/A,Snow,Light Snow,0,2012-12-31 16:15:00
10:35 AM,32.0,32.0,100,30.15,1.0,Calm,Calm,-,0.01,Snow,Light Snow,0,2012-12-31 16:35:00
10:55 AM,32.0,32.0,100,30.16,1.2,Calm,Calm,-,0.01,Snow,Light Snow,0,2012-12-31 16:55:00
11:15 AM,32.0,32.0,100,30.13,1.2,Calm,Calm,-,N/A,Snow,Light Snow,0,2012-12-31 17:15:00
11:35 AM,32.0,32.0,100,30.13,1.8,Calm,Calm,-,N/A,Snow,Light Snow,0,2012-12-31 17:35:00
11:55 AM,32.0,32.0,100,30.12,2.0,Calm,Calm,-,0.01,Snow,Light Snow,0,2012-12-31 17:55:00
12:15 PM,33.8,32.0,93,30.10,3.0,Calm,Calm,-,N/A,Rain,Light Rain,0,2012-12-31 18:15:00
12:55 PM,33.8,32.0,93,30.08,7.0,Calm,Calm,-,N/A,,Light Drizzle,0,2012-12-31 18:55:00
1:15 PM,32.0,32.0,100,30.08,5.0,NW,3.5,-,N/A,Rain,Light Rain,320,2012-12-31 19:15:00
1:35 PM,32.0,32.0,100,30.08,7.0,Calm,Calm,-,N/A,Rain,Light Rain,0,2012-12-31 19:35:00
1:55 PM,32.0,32.0,100,30.07,7.0,NNE,3.5,-,N/A,Rain,Light Rain,20,2012-12-31 19:55:00
2:15 PM,32.0,32.0,100,30.05,5.0,NNE,3.5,-,N/A,Snow,Light Snow,30,2012-12-31 20:15:00
2:35 PM,32.0,32.0,100,30.06,4.0,NNE,3.5,-,N/A,Rain,Light Rain,30,2012-12-31 20:35:00
2:55 PM,32.0,32.0,100,30.05,2.5,NNE,3.5,-,N/A,Snow,Light Snow,20,2012-12-31 20:55:00
3:35 PM,32.0,32.0,100,30.06,3.0,NNE,5.8,-,N/A,,Overcast,30,2012-12-31 21:35:00
3:55 PM,32.0,32.0,100,30.07,3.0,NE,4.6,-,N/A,Snow,Light Snow,40,2012-12-31 21:55:00
4:15 PM,32.0,32.0,100,30.07,2.0,NNE,4.6,-,N/A,Snow,Light Snow,30,2012-12-31 22:15:00
4:35 PM,32.0,32.0,100,30.06,1.5,NNE,4.6,-,N/A,Snow,Light Snow,30,2012-12-31 22:35:00
4:55 PM,32.0,32.0,100,30.07,1.8,NNE,4.6,-,N/A,Snow,Light Snow,30,2012-12-31 22:55:00
5:15 PM,32.0,32.0,100,30.07,2.5,NNE,4.6,-,N/A,Snow,Light Snow,20,2012-12-31 23:15:00
5:35 PM,32.0,32.0,100,30.08,4.0,NNE,4.6,-,N/A,Snow,Light Snow,20,2012-12-31 23:35:00
6:35 PM,30.2,28.4,93,30.09,7.0,North,8.1,-,N/A,Snow,Light Snow,360,2013-01-01 00:35:00
7:15 PM,28.4,26.6,93,30.10,5.0,North,8.1,-,N/A,Snow,Light Snow,360,2013-01-01 01:15:00
7:35 PM,28.4,26.6,93,30.10,7.0,North,6.9,-,N/A,Snow,Light Snow,360,2013-01-01 01:35:00
7:55 PM,26.6,24.8,93,30.11,7.0,North,10.4,-,N/A,Snow,Light Snow,360,2013-01-01 01:55:00
8:15 PM,26.6,24.8,93,30.11,7.0,North,9.2,-,N/A,Snow,Light Snow,360,2013-01-01 02:15:00
8:35 PM,26.6,24.8,93,30.12,5.0,North,6.9,-,N/A,Snow,Light Snow,360,2013-01-01 02:35:00
8:55 PM,26.6,23.0,86,30.12,7.0,North,8.1,-,N/A,Snow,Light Snow,360,2013-01-01 02:55:00
9:15 PM,26.6,23.0,86,30.12,7.0,North,10.4,-,N/A,,Overcast,360,2013-01-01 03:15:00
9:35 PM,26.6,23.0,86,30.13,7.0,North,9.2,-,N/A,Snow,Light Snow,350,2013-01-01 03:35:00
9:55 PM,24.8,23.0,93,30.13,10.0,North,6.9,-,N/A,,Overcast,360,2013-01-01 03:55:00
10:15 PM,24.8,21.2,86,30.15,10.0,North,10.4,-,N/A,,Overcast,360,2013-01-01 04:15:00
10:35 PM,24.8,21.2,86,30.15,10.0,North,11.5,-,N/A,,Overcast,10,2013-01-01 04:35:00
10:55 PM,24.8,21.2,86,30.15,10.0,North,8.1,-,N/A,,Overcast,360,2013-01-01 04:55:00
11:15 PM,24.8,21.2,86,30.16,10.0,North,10.4,-,N/A,,Overcast,360,2013-01-01 05:15:00
11:35 PM,24.8,21.2,86,30.17,10.0,North,8.1,-,N/A,,Overcast,360,2013-01-01 05:35:00
11:55 PM,23.0,19.4,86,30.17,10.0,North,6.9,-,N/A,,Overcast,10,2013-01-01 05:55:00